STARLINK-11559, 62831

Orbit data source: Space-Track

STARLINK-11559, 62831 is a payload satellite owned by SpaceX/Seattle (US) in LEO that was launched on Mon, 27 Jan 2025 UTC via an FALCON 9 launch vehicle from the Air Force Eastern Test Range (AFETR). Payload-class satellites include a variety of spacecraft equipped with specific instruments for various scientific and technological missions. These include communications satellites like Starlink; space stations such as the ISS; scientific satellites like the Hubble; Earth observation satellites from companies like Planet Labs, Umbra, and HawkEye 360; GPS; miniature CubeSats for education and research; and military/defense satellites.

Loading next visibility...
Identifier
62831, 2025-019C
Orbit
LEO
Country
Flag of USUS
Related business
Manufacturer
SpaceX/Seattle
Mission
Operational Commercial Communications
Bus & Motor
STARLINK V2MD, Unknown motor
Mass
960 kg wet, ~910 kg dry
Launch date (UTC)
2025-01-27 (1 year ago)
Launch vehicle
FALCON 9
Launch site
Air Force Eastern Test Range (AFETR)
Object type
Payload
Rocket body
Debris
Shape & HBR
Box + 2 Pan, 18.1 m
Radar Cross Section
36.964 m², Large (>1 m²)

Expand to show TLE details & history
Last TLE update: 9 hours ago

TLE from 9 hours ago
0 STARLINK-11559
1 62831U 25019C   26034.25002315 -.00017175  00000-0 -13060-3 0  9996
2 62831  43.0005 154.0325 0001577 265.2012 293.9338 15.70843368  5931
Epoch: 2026-02-03T06:00Z
TLE epoch observation values (Epoch: 2026-02-03T06:00:02.000Z)
Latitude
-13.03736°
Longitude
124.88548°
Altitude
358.419 km
Speed
7.695 km/s
True Right ascension
23h 13m 18s
True Declination
-12° 57' 27"
Sunlit
Object was in daylight at epoch
Visualization orbit readout
Latitude
Unknown
Longitude
Unknown
Altitude
Unknown
Speed
Unknown
Apparent Right ascension
Unknown
Apparent Declination
Unknown
Sunlit
N/A
Visualization observer readout
Local Sidereal Time
17:20:21
Azimuth
Unknown
Elevation
Unknown
Doppler factor
Unknown
Orbital elements
Apogee altitude
359.529 km
Perigee altitude
357.405 km
Semi-major axis
6,736.604 km
Eccentricity
0.00016
Inclination
43.0005°
RAAN
154.0325°
Arg. of periapsis
265.2012°
True anomaly
293.91728°
Mean anomaly
293.9338°
Eccentric anomaly
293.92554°
Mean motion
3.92538 °/min
Orbital period
91.71 mins
BSTAR
-0.0001306
Loading maneuver chart data...
Computing Atmospheric mass density...
Loading historical data...
Loading historical data...
Loading historical data...
Loading historical data...
Loading historical data...
Loading historical data...
Loading historical data...

Documentation

Showing up to 5 results
|